TimeCST,TemperatureF,Dew PointF,Humidity,Sea Level PressureIn,VisibilityMPH,Wind Direction,Wind SpeedMPH,Gust SpeedMPH,PrecipitationIn,Events,Conditions,WindDirDegrees,DateUTC
12:53 AM,23.0,19.9,88,30.20,10.0,ESE,4.6,-,N/A,,Clear,110,2012-12-12 06:53:00
1:53 AM,23.0,19.0,85,30.21,10.0,East,4.6,-,N/A,,Clear,100,2012-12-12 07:53:00
2:53 AM,21.9,18.0,85,30.22,10.0,SE,5.8,-,N/A,,Clear,130,2012-12-12 08:53:00
3:53 AM,21.9,18.0,85,30.21,10.0,SE,4.6,-,N/A,,Clear,130,2012-12-12 09:53:00
4:53 AM,19.0,15.1,85,30.22,10.0,ESE,4.6,-,N/A,,Clear,120,2012-12-12 10:53:00
5:53 AM,19.0,15.1,85,30.24,10.0,Calm,Calm,-,N/A,,Clear,0,2012-12-12 11:53:00
6:53 AM,19.9,16.0,85,30.26,10.0,ESE,3.5,-,N/A,,Clear,110,2012-12-12 12:53:00
7:53 AM,21.0,17.1,85,30.27,10.0,ESE,5.8,-,N/A,,Clear,120,2012-12-12 13:53:00
8:53 AM,28.0,21.0,75,30.29,10.0,ESE,5.8,-,N/A,,Clear,110,2012-12-12 14:53:00
9:53 AM,34.0,24.1,67,30.30,10.0,ESE,4.6,-,N/A,,Clear,110,2012-12-12 15:53:00
10:53 AM,42.1,19.9,41,30.29,10.0,Calm,Calm,-,N/A,,Clear,0,2012-12-12 16:53:00
11:53 AM,46.9,18.0,32,30.27,10.0,Variable,4.6,-,N/A,,Clear,0,2012-12-12 17:53:00
12:53 PM,50.0,17.1,27,30.25,10.0,South,11.5,-,N/A,,Clear,170,2012-12-12 18:53:00
1:53 PM,51.1,14.0,23,30.22,8.0,South,8.1,-,N/A,,Clear,180,2012-12-12 19:53:00
2:53 PM,52.0,12.9,21,30.20,10.0,SSW,9.2,-,N/A,,Clear,200,2012-12-12 20:53:00
3:53 PM,52.0,12.9,21,30.21,10.0,South,10.4,-,N/A,,Clear,170,2012-12-12 21:53:00
4:53 PM,48.9,15.1,26,30.21,10.0,SSE,5.8,-,N/A,,Clear,150,2012-12-12 22:53:00
5:53 PM,46.0,15.1,29,30.21,10.0,ESE,6.9,-,N/A,,Clear,120,2012-12-12 23:53:00
6:53 PM,44.1,15.1,31,30.22,10.0,SE,5.8,-,N/A,,Clear,130,2012-12-13 00:53:00
7:53 PM,42.1,15.1,34,30.22,10.0,ESE,9.2,-,N/A,,Clear,120,2012-12-13 01:53:00
8:53 PM,41.0,16.0,36,30.21,10.0,ESE,9.2,-,N/A,,Clear,110,2012-12-13 02:53:00
9:53 PM,39.9,16.0,38,30.23,10.0,ESE,6.9,-,N/A,,Clear,120,2012-12-13 03:53:00
10:53 PM,39.0,17.1,41,30.23,10.0,East,4.6,-,N/A,,Clear,100,2012-12-13 04:53:00
11:53 PM,39.9,17.1,40,30.25,10.0,East,5.8,-,N/A,,Clear,100,2012-12-13 05:53:00